sat.trackr.live / text

‹ back to catalog

STARLINK-35231

NORAD 65849 · 2025-221AC

PAYLOAD ACTIVE UNKNOWN

§ Identity

Operator
Country
US
Launch date
2025-09-29
Launch site
AFWTR
Launch vehicle
Mass (kg)
RCS (m²)

Purposes: comms

External: N2YO · Heavens-Above · Gunter

§ Orbital elements

Epoch: 2026-05-25T03:43:05.101824Z

Period
94.10 min
Inclination
53.1577°
Eccentricity
0.0001070
Mean motion
15.30209510 rev/d
Perigee alt
474.5 km
Apogee alt
475.9 km
Semi-major
6,853.3 km
B*
5.4771e-4
RAAN
93.6578°
Arg perigee
87.8547°
Mean anomaly
272.2576°
Rev number
3,778

§ Raw data

STARLINK-352311 65849U 25221AC  26145.15492016  .00015902  00000+0  54771-3 0  99932 65849  53.1577  93.6578 0001070  87.8547 272.2576 15.30209510 37789

JSON: /api/v1/satellites/65849 · /tle

For live sub-satellite position, see the globe view (requires WebGL).

§ Visibility from observer

Set your observer location to see the next 7 days of passes ≥ 10°. The values pass through the URL so the page stays shareable.

No JS? Fill the form by hand. The geolocation button needs JavaScript.